Location: West Cummington
(42.4920°N, 72.9680°W)
Time: 23:50:38
(UTC-05:00)

ATLAS 2AS CENTAUR R/B - Visible Passes

Search period start: 29 January 2015 00:00
Search period end: 08 February 2015 00:00
Orbit: 915 x 1298 km, 63.7° (Epoch: 23 January)

Date Brightness Start Highest point End Pass type
(mag) Time Alt. Az. Time Alt. Az. Time Alt. Az.
29 Jan 5.2 02:41:13 14° NNE 02:41:13 14° NNE 02:43:10 10° NNE visible
29 Jan 4.9 04:28:39 12° NNW 04:32:30 17° NNE 04:37:33 10° NE visible
29 Jan 4.3 06:18:49 10° NNW 06:26:10 37° NE 06:33:27 10° ESE visible
30 Jan 5.5 01:57:50 11° NNE 01:57:50 11° NNE 01:58:12 10° NNE visible
30 Jan 4.9 03:45:15 15° N 03:46:46 16° N 03:51:23 10° NE visible
30 Jan 4.6 05:34:07 10° NNW 05:40:49 28° NNE 05:47:35 10° E visible
31 Jan 5.1 03:01:51 15° N 03:01:51 15° N 03:05:32 10° NNE visible
31 Jan 4.8 04:49:21 10° NNW 04:55:20 22° NNE 05:01:27 10° ENE visible
01 Feb 5.3 02:18:29 13° NNE 02:18:29 13° NNE 02:20:05 10° NNE visible
01 Feb 4.9 04:05:55 14° NNW 04:09:44 19° NNE 04:15:10 10° ENE visible
01 Feb 4.1 05:55:28 10° NNW 06:03:07 44° NE 06:10:39 10° ESE visible
02 Feb 5.0 03:22:32 16° N 03:24:02 16° N 03:28:53 10° NE visible
02 Feb 4.4 05:10:46 10° NNW 05:17:52 33° NE 05:24:58 10° E visible
03 Feb 5.2 02:39:10 15° N 02:39:10 15° N 02:42:49 10° NE visible
03 Feb 4.7 04:26:36 12° NNW 04:32:28 25° NNE 04:38:59 10° E visible
03 Feb 3.4 06:16:51 10° NNW 06:25:00 73° NE 06:32:52 10° SE visible
04 Feb 5.4 01:55:50 13° NNE 01:55:50 13° NNE 01:57:08 10° NNE visible
04 Feb 4.9 03:43:16 15° N 03:46:55 21° NNE 03:52:46 10° ENE visible
04 Feb 3.8 05:32:07 10° NNW 05:40:01 53° NE 05:47:43 10° ESE visible
05 Feb 5.0 02:59:57 17° N 03:01:16 18° NNE 03:06:27 10° NE visible
05 Feb 4.2 04:47:24 10° NNW 04:54:51 39° NE 05:02:14 10° ESE visible
06 Feb 5.2 02:16:40 16° NNE 02:16:40 16° NNE 02:20:14 10° NE visible
06 Feb 4.6 04:04:07 15° NNW 04:09:32 29° NNE 04:16:25 10° E visible
06 Feb 3.1 05:53:33 10° NW 06:01:44 89° NE 06:09:35 10° SSE visible
07 Feb 5.5 01:33:25 12° NNE 01:33:25 12° NNE 01:34:18 10° NNE visible
07 Feb 4.8 03:20:52 18° N 03:24:05 23° NNE 03:30:20 10° ENE visible
07 Feb 3.4 05:08:46 10° NNW 05:16:51 64° NE 05:24:40 10° SE visible
